DW8571 Weather Reports


time (UTC)temp
F
wind
direction
speed
knots
gust
knots
rain 1hr
in
rain 24hr
in
rain mn
in
humidity
%
barometer
mb
20190322163016 57 30 4.3 8.7 0.00 0.00 0.00 54 1020.9
20190322161508 56 351 1.7 7.8 0.00 0.00 0.00 57 1021.0
20190322160005 55 306 2.6 6.1 0.00 0.01 0.00 59 1021.0
20190322154740 55 290 3.5 8.7 0.00 0.01 0.00 62 1021.0
20190322153307 53 303 2.6 5.2 0.00 0.01 0.00 65 1021.0
20190322151708 52 263 1.7 5.2 0.00 0.01 0.00 68 1021.0
20190322150137 51 302 2.6 5.2 0.00 0.01 0.00 70 1021.1
20190322144622 49 313 1.7 5.2 0.00 0.01 0.00 74 1021.1
20190322143231 48 278 1.7 4.3 0.00 0.01 0.00 80 1021.0
20190322141609 46 293 1.7 4.3 0.00 0.01 0.00 84 1020.8
20190322140138 45 291 2.6 4.3 0.00 0.01 0.00 85 1020.7
20190322134554 44 355 0.9 2.6 0.00 0.02 0.00 90 1020.5
20190322133119 42 274 0.0 0.9 0.00 0.02 0.00 94 1020.3
20190322131557 40 346 0.0 0.9 0.00 0.02 0.00 95 1020.2
20190322130026 39 332 0.0 0.0 0.00 0.02 0.00 95 1020.0
20190322124616 37 332 0.0 0.0 0.00 0.04 0.00 95 1019.9
20190322123045 35 332 0.0 0.0 0.00 0.04 0.00 94 1019.8
20190322121530 34 332 0.0 0.0 0.00 0.04 0.00 93 1019.7
20190322120039 34 30 0.0 0.0 0.00 0.04 0.00 93 1019.7
20190322114527 34 30 0.0 0.0 0.00 0.05 0.00 92 1019.5
20190322113021 35 30 0.0 0.0 0.00 0.05 0.00 93 1019.4
20190322111519 35 30 0.0 0.0 0.00 0.05 0.00 92 1019.3
20190322110036 35 30 0.0 0.0 0.00 0.05 0.00 92 1019.1
20190322104516 35 30 0.0 0.0 0.00 0.07 0.00 92 1019.0
20190322103034 35 30 0.0 0.0 0.00 0.07 0.00 92 1018.7
20190322101511 35 30 0.0 0.0 0.00 0.07 0.00 91 1018.7
20190322100007 36 30 0.0 0.0 0.00 0.08 0.00 91 1018.5
20190322094525 36 30 0.0 0.0 0.00 0.08 0.00 91 1018.5
20190322093002 36 30 0.0 0.0 0.00 0.08 0.00 91 1018.6
20190322091503 36 30 0.0 0.0 0.00 0.08 0.00 91 1018.3
20190322084735 37 30 0.0 0.0 0.00 0.09 0.00 90 1018.3
20190322083329 37 30 0.0 0.0 0.00 0.09 0.00 90 1018.2
20190322081722 38 30 0.0 0.0 0.00 0.09 0.00 89 1018.2
20190322080327 38 30 0.0 0.0 0.00 0.09 0.00 89 1018.4
20190322074654 38 30 0.0 0.0 0.00 0.11 0.00 89 1018.5
20190322073203 39 30 0.0 0.0 0.00 0.11 0.00 89 1018.6
20190322071651 39 30 0.0 0.0 0.00 0.11 0.00 88 1018.4
20190322070123 39 30 0.0 0.0 0.00 0.11 0.00 88 1018.4
20190322064635 40 30 0.0 0.0 0.00 0.12 0.00 88 1018.3
20190322063111 40 30 0.0 0.0 0.00 0.12 0.00 87 1018.3
20190322061653 41 30 0.0 0.0 0.00 0.12 0.00 86 1018.4
20190322060121 41 30 0.0 0.0 0.00 0.12 0.00 86 1018.4
20190322054613 42 30 0.0 0.0 0.00 0.12 0.00 86 1018.3
20190322053112 42 30 0.0 0.0 0.00 0.12 0.00 85 1018.3
20190322051639 42 30 0.0 0.9 0.00 0.12 0.00 84 1018.4
20190322050119 43 30 0.0 0.0 0.00 0.12 0.00 82 1018.3
20190322044548 44 30 0.0 0.0 0.00 0.14 0.12 81 1018.4
20190322043122 44 30 0.0 0.0 0.00 0.14 0.12 78 1018.3
20190322041614 45 30 0.0 0.0 0.00 0.14 0.12 76 1018.4
20190322040037 46 30 0.0 0.0 0.00 0.14 0.12 75 1018.4
20190322034531 48 30 0.0 0.0 0.00 0.15 0.12 74 1018.4
20190322033100 49 30 0.0 0.0 0.00 0.15 0.12 70 1018.4
20190322031537 50 30 0.9 2.6 0.00 0.15 0.12 69 1018.4
20190322030121 50 27 0.9 3.5 0.00 0.15 0.12 69 1018.5
20190322024602 51 48 0.9 2.6 0.00 0.19 0.12 67 1018.4
20190322023038 52 47 1.7 3.5 0.00 0.19 0.12 66 1018.3
20190322021538 52 18 2.6 5.2 0.00 0.19 0.12 65 1018.1
20190322020045 52 19 2.6 7.0 0.00 0.19 0.12 65 1018.0
20190322014553 53 18 2.6 4.3 0.00 0.19 0.12 65 1017.8
20190322013033 53 13 1.7 5.2 0.00 0.19 0.12 63 1017.5
20190322011554 54 17 1.7 5.2 0.00 0.19 0.12 62 1017.3
20190322010036 54 360 2.6 5.2 0.00 0.19 0.12 61 1017.1
20190322004547 55 332 2.6 7.0 0.00 0.19 0.12 61 1017.0
20190322003056 56 329 2.6 4.3 0.00 0.19 0.12 60 1016.8
20190322001614 56 355 3.5 8.7 0.00 0.19 0.12 58 1016.6
20190322000102 57 290 6.1 10.4 0.00 0.19 0.12 56 1016.4
20190321234545 58 322 4.3 10.4 0.00 0.19 0.12 54 1016.2
20190321233039 59 324 3.5 10.4 0.00 0.19 0.12 54 1015.9
20190321231543 60 291 6.1 11.3 0.00 0.19 0.12 53 1015.7
20190321230049 61 309 7.0 11.3 0.00 0.19 0.12 52 1015.5
20190321224528 62 300 6.1 11.3 0.00 0.19 0.12 50 1015.3
20190321223107 62 325 5.2 11.3 0.00 0.19 0.12 50 1015.2
20190321221518 63 336 5.2 10.4 0.00 0.19 0.12 49 1015.1
20190321220048 62 310 5.2 15.6 0.00 0.19 0.12 47 1014.9
20190321214542 63 304 8.7 13.9 0.00 0.19 0.12 45 1014.7
20190321213016 63 11 6.1 11.3 0.00 0.19 0.12 45 1014.8
20190321211514 63 306 7.8 14.8 0.00 0.19 0.12 42 1014.6
20190321210017 64 9 4.3 13.0 0.00 0.19 0.12 43 1014.6
20190321204543 64 343 6.1 14.8 0.00 0.19 0.12 46 1014.5
20190321203022 64 16 7.0 13.0 0.00 0.19 0.12 45 1014.4
20190321201525 64 339 7.0 13.9 0.00 0.19 0.12 48 1014.3
20190321200024 63 302 7.8 12.2 0.00 0.19 0.12 49 1014.2
20190321194513 63 338 8.7 13.0 0.00 0.19 0.12 49 1014.3
20190321193030 64 327 7.0 11.3 0.00 0.19 0.12 47 1014.4
20190321191516 63 299 9.6 13.9 0.00 0.19 0.12 49 1014.4
20190321190134 63 316 6.1 12.2 0.00 0.19 0.12 51 1014.7
20190321184619 62 360 4.3 12.2 0.00 0.19 0.12 53 1014.9
20190321183145 62 16 5.2 13.0 0.00 0.19 0.12 53 1014.9
20190321181648 62 301 7.8 13.0 0.00 0.19 0.12 52 1014.9
20190321180133 62 290 6.1 12.2 0.00 0.19 0.12 56 1015.0
20190321174636 61 319 6.1 13.9 0.00 0.19 0.12 53 1015.1
20190321173133 60 319 7.0 13.0 0.00 0.19 0.12 56 1015.2
20190321171650 60 304 8.7 13.0 0.00 0.19 0.12 56 1015.3
20190321170108 59 360 2.6 8.7 0.00 0.19 0.12 60 1015.2
20190321164620 59 310 5.2 8.7 0.00 0.19 0.12 62 1015.5